Tracking 35280 objects as of 7-Sep-2026
HD Live streaming from Space Station
objects crossing your sky now

FREGAT DEB


10-day predictions


NORAD ID: 45931
Int'l Code: 2011-037EV
Launch date: July 18, 2011
Source: Commonwealth of Independent States (former USSR) (CIS)
Launch site: TYURATAM MISSILE AND SPACE COMPLEX (TTMTR)

Note: This is SATELLITE DEBRIS
Your satellite tracking list
Your tracking list is empty




NASA's NSSDC Master Catalog

Two Line Element Set (TLE):
1 45931U 11037EV  20358.57162111  .02661344  00000-0  23070+0 0  9993
2 45931  51.4423 142.2488 1263465 174.6509 186.9456 12.76082807 20418
Source of the keplerian elements: AFSPC